This is the latest recevied weather packets stored in our database for station/object EB2EMZ-14. If no packets are shown the sender has not sent any weather packets the latest 10 day(s).
| Time | Temp. | Humidity | Pressure | Rain* | Wind** | Luminosity | Snow |
|---|---|---|---|---|---|---|---|
| 1777813518 | 20° C | 63% | 1011.4 hPa | 0 mm | - | 0 W/m² | - |
| 1777813217 | 20° C | 63% | 1011.5 hPa | 0 mm | - | 0 W/m² | - |
| 1777812918 | 20° C | 63% | 1011.5 hPa | 0 mm | - | 0 W/m² | - |
| 1777812617 | 19.44° C | 64% | 1011.5 hPa | 0 mm | - | 0 W/m² | - |
| 1777812317 | 19.44° C | 64% | 1011.1 hPa | 0 mm | - | 0 W/m² | - |
| 1777812018 | 19.44° C | 64% | 1011.4 hPa | 0 mm | - | 0 W/m² | - |
| 1777811717 | 18.89° C | 65% | 1011.5 hPa | 0 mm | - | 0 W/m² | - |
| 1777811418 | 18.89° C | 65% | 1011.7 hPa | 0 mm | - | 0 W/m² | - |
| 1777811117 | 19.44° C | 64% | 1011.8 hPa | 0 mm | - | 0 W/m² | - |
| 1777810818 | 19.44° C | 64% | 1012 hPa | 0 mm | - | 0 W/m² | - |
| 1777810517 | 19.44° C | 64% | 1012 hPa | 0 mm | - | 0 W/m² | - |
| 1777810218 | 19.44° C | 64% | 1012.1 hPa | 0 mm | - | 0 W/m² | - |
| 1777809917 | 19.44° C | 64% | 1012.1 hPa | 0 mm | - | 0 W/m² | - |
| 1777809617 | 19.44° C | 66% | 1012.1 hPa | 0 mm | - | 0 W/m² | - |
| 1777809319 | 18.89° C | 68% | 1012.1 hPa | 0 mm | - | 0 W/m² | - |
| 1777809017 | 17.78° C | 67% | 1012.2 hPa | 0 mm | - | 0 W/m² | - |
| 1777808717 | 17.78° C | 66% | 1012.2 hPa | 0 mm | - | 0 W/m² | - |
| 1777808417 | 17.78° C | 63% | 1012.3 hPa | 0 mm | - | 0 W/m² | - |
| 1777808117 | 18.89° C | 62% | 1012.1 hPa | 0 mm | - | 0 W/m² | - |
| 1777807817 | 20° C | 64% | 1012.2 hPa | 0 mm | - | 0 W/m² | - |
| 1777807518 | 20° C | 66% | 1012.2 hPa | 0 mm | - | 0 W/m² | - |
| 1777807217 | 20° C | 67% | 1012.2 hPa | 0 mm | - | 0 W/m² | - |
| 1777806917 | 19.44° C | 66% | 1012.4 hPa | 0 mm | - | 0 W/m² | - |
| 1777806618 | 19.44° C | 65% | 1012.2 hPa | 0 mm | - | 0 W/m² | - |
| 1777806320 | 20° C | 63% | 1012.4 hPa | 0 mm | - | 0 W/m² | - |
* Rain latest hour (hover to see other rain measurements)
** Current wind speed in m/s (hover to see current wind gust speed)